Time,TemperatureF,DewpointF,PressureIn,WindDirection,WindDirectionDegrees,WindSpeedMPH,WindSpeedGustMPH,Humidity,HourlyPrecipIn,Conditions,Clouds,dailyrainin,SoftwareType,DateUTC
2013-02-18 00:05:00,31.1,18.8,30.01,SSE,159,9.2,9.2,60,0.00,CLR,,0.00,WeatherDisplay:10.37,2013-02-18 06:05:00,
2013-02-18 00:10:00,31.2,18.9,30.01,SSE,159,10.4,10.4,60,0.00,CLR,,0.00,WeatherDisplay:10.37,2013-02-18 06:10:00,
2013-02-18 00:15:00,31.2,18.9,30.00,SSE,153,5.0,5.0,60,0.00,CLR,,0.00,WeatherDisplay:10.37,2013-02-18 06:15:00,
2013-02-18 00:20:00,31.2,18.9,30.00,SSE,155,5.0,5.0,60,0.00,CLR,,0.00,WeatherDisplay:10.37,2013-02-18 06:20:00,
2013-02-18 00:25:00,31.3,19.0,30.00,ESE,115,4.6,4.6,60,0.00,CLR,,0.00,WeatherDisplay:10.37,2013-02-18 06:25:00,
2013-02-18 00:30:00,31.5,18.8,30.00,SE,139,5.8,5.8,59,0.00,CLR,,0.00,WeatherDisplay:10.37,2013-02-18 06:30:00,
2013-02-18 00:35:00,31.4,18.7,29.99,SSE,150,0.0,0.0,59,0.00,CLR,,0.00,WeatherDisplay:10.37,2013-02-18 06:35:00,
2013-02-18 00:40:00,31.6,18.9,29.99,South,176,6.9,6.9,59,0.00,CLR,,0.00,WeatherDisplay:10.37,2013-02-18 06:40:00,
2013-02-18 00:45:00,31.9,19.2,29.99,South,169,12.7,12.7,59,0.00,CLR,,0.00,WeatherDisplay:10.37,2013-02-18 06:45:00,
2013-02-18 00:50:00,31.8,19.1,29.99,South,173,4.6,4.6,59,0.00,CLR,,0.00,WeatherDisplay:10.37,2013-02-18 06:50:00,
2013-02-18 00:56:00,31.8,19.1,29.98,SE,143,6.9,6.9,59,0.00,CLR,,0.00,WeatherDisplay:10.37,2013-02-18 06:56:00,
2013-02-18 01:01:00,31.9,19.2,29.98,South,169,9.2,9.2,59,0.00,CLR,,0.00,WeatherDisplay:10.37,2013-02-18 07:01:00,
2013-02-18 01:06:00,32.1,19.4,29.98,South,173,17.3,17.3,59,0.00,CLR,,0.00,WeatherDisplay:10.37,2013-02-18 07:06:00,
2013-02-18 01:11:00,32.3,19.6,29.98,SE,136,10.0,10.0,59,0.00,CLR,,0.00,WeatherDisplay:10.37,2013-02-18 07:11:00,
2013-02-18 01:16:00,32.5,19.7,29.98,SSE,151,10.4,10.4,59,0.00,CLR,,0.00,WeatherDisplay:10.37,2013-02-18 07:16:00,
2013-02-18 01:21:00,32.5,19.3,29.97,SE,146,15.0,15.0,58,0.00,CLR,,0.00,WeatherDisplay:10.37,2013-02-18 07:21:00,
2013-02-18 01:26:00,32.4,19.7,29.96,SSE,161,6.9,6.9,59,0.00,CLR,,0.00,WeatherDisplay:10.37,2013-02-18 07:26:00,
2013-02-18 01:31:00,32.5,19.7,29.96,SSE,155,4.6,4.6,59,0.00,CLR,,0.00,WeatherDisplay:10.37,2013-02-18 07:31:00,
2013-02-18 01:37:00,32.5,19.7,29.96,SSE,149,10.4,10.4,59,0.00,CLR,,0.00,WeatherDisplay:10.37,2013-02-18 07:37:00,
2013-02-18 01:42:00,32.6,19.8,29.96,SSE,156,6.9,6.9,59,0.00,CLR,,0.00,WeatherDisplay:10.37,2013-02-18 07:42:00,
2013-02-18 01:47:00,32.7,19.5,29.96,SSE,167,11.0,11.0,58,0.00,CLR,,0.00,WeatherDisplay:10.37,2013-02-18 07:47:00,
2013-02-18 01:52:00,32.8,19.6,29.95,SSE,148,5.8,5.8,58,0.00,CLR,,0.00,WeatherDisplay:10.37,2013-02-18 07:52:00,
2013-02-18 01:57:00,32.9,19.7,29.95,SSE,155,9.2,9.2,58,0.00,CLR,,0.00,WeatherDisplay:10.37,2013-02-18 07:57:00,
2013-02-18 02:02:00,32.9,19.7,29.95,SE,138,4.6,4.6,58,0.00,CLR,,0.00,WeatherDisplay:10.37,2013-02-18 08:02:00,
2013-02-18 02:08:00,32.9,19.7,29.95,South,183,3.5,3.5,58,0.00,CLR,,0.00,WeatherDisplay:10.37,2013-02-18 08:08:00,
2013-02-18 02:13:00,33.0,19.8,29.95,SSE,148,10.4,10.4,58,0.00,CLR,,0.00,WeatherDisplay:10.37,2013-02-18 08:13:00,
2013-02-18 02:18:00,33.2,20.0,29.95,SSE,158,10.4,10.4,58,0.00,CLR,,0.00,WeatherDisplay:10.37,2013-02-18 08:18:00,
2013-02-18 02:23:00,33.5,20.3,29.95,SE,144,10.4,10.4,58,0.00,CLR,,0.00,WeatherDisplay:10.37,2013-02-18 08:23:00,
2013-02-18 02:28:00,33.6,20.0,29.95,SSE,156,9.2,9.2,57,0.00,CLR,,0.00,WeatherDisplay:10.37,2013-02-18 08:28:00,
2013-02-18 02:33:00,33.6,20.4,29.95,South,172,6.9,6.9,58,0.00,CLR,,0.00,WeatherDisplay:10.37,2013-02-18 08:33:00,
2013-02-18 02:38:00,33.7,20.1,29.94,South,169,6.9,6.9,57,0.00,CLR,,0.00,WeatherDisplay:10.37,2013-02-18 08:38:00,
2013-02-18 02:44:00,33.5,20.3,29.94,SE,139,13.8,13.8,58,0.00,CLR,,0.00,WeatherDisplay:10.37,2013-02-18 08:44:00,
2013-02-18 02:49:00,33.5,20.3,29.93,SSE,150,6.9,6.9,58,0.00,CLR,,0.00,WeatherDisplay:10.37,2013-02-18 08:49:00,
2013-02-18 02:54:00,33.5,20.3,29.93,South,175,10.4,10.4,58,0.00,CLR,,0.00,WeatherDisplay:10.37,2013-02-18 08:54:00,
2013-02-18 02:59:00,33.5,20.3,29.92,SE,145,6.9,6.9,58,0.00,CLR,,0.00,WeatherDisplay:10.37,2013-02-18 08:59:00,
2013-02-18 03:04:00,33.7,20.5,29.92,SE,146,20.7,20.7,58,0.00,CLR,,0.00,WeatherDisplay:10.37,2013-02-18 09:04:00,
2013-02-18 03:09:00,33.8,20.6,29.92,SSE,153,5.8,5.8,58,0.00,CLR,,0.00,WeatherDisplay:10.37,2013-02-18 09:09:00,
2013-02-18 03:14:00,33.9,20.7,29.91,SSE,164,9.2,9.2,58,0.00,CLR,,0.00,WeatherDisplay:10.37,2013-02-18 09:14:00,
2013-02-18 03:20:00,33.8,21.0,29.91,SSE,161,9.2,9.2,59,0.00,CLR,,0.00,WeatherDisplay:10.37,2013-02-18 09:20:00,
2013-02-18 03:25:00,33.8,21.0,29.91,SSE,153,12.0,12.0,59,0.00,CLR,,0.00,WeatherDisplay:10.37,2013-02-18 09:25:00,
2013-02-18 03:30:00,33.9,21.1,29.91,South,186,15.0,15.0,59,0.00,CLR,,0.00,WeatherDisplay:10.37,2013-02-18 09:30:00,
2013-02-18 03:35:00,33.8,21.0,29.91,SSE,167,5.8,5.8,59,0.00,CLR,,0.00,WeatherDisplay:10.37,2013-02-18 09:35:00,
2013-02-18 03:40:00,33.9,21.1,29.90,South,175,11.0,11.0,59,0.00,CLR,,0.00,WeatherDisplay:10.37,2013-02-18 09:40:00,
2013-02-18 03:45:00,34.0,21.2,29.90,SSE,164,13.8,13.8,59,0.00,CLR,,0.00,WeatherDisplay:10.37,2013-02-18 09:45:00,
2013-02-18 03:51:00,34.0,21.2,29.90,South,191,17.3,17.3,59,0.00,CLR,,0.00,WeatherDisplay:10.37,2013-02-18 09:51:00,
2013-02-18 03:56:00,33.9,21.1,29.90,SSE,167,13.8,13.8,59,0.00,CLR,,0.00,WeatherDisplay:10.37,2013-02-18 09:56:00,
2013-02-18 04:01:00,33.7,21.3,29.90,SSE,157,10.4,10.4,60,0.00,CLR,,0.00,WeatherDisplay:10.37,2013-02-18 10:01:00,
2013-02-18 04:06:00,33.6,21.2,29.90,South,169,11.5,11.5,60,0.00,CLR,,0.00,WeatherDisplay:10.37,2013-02-18 10:06:00,
2013-02-18 04:11:00,33.6,21.6,29.90,SSE,158,13.8,13.8,61,0.00,CLR,,0.00,WeatherDisplay:10.37,2013-02-18 10:11:00,
2013-02-18 04:16:00,33.5,21.5,29.90,SE,145,9.2,9.2,61,0.00,CLR,,0.00,WeatherDisplay:10.37,2013-02-18 10:16:00,
2013-02-18 04:21:00,33.7,21.7,29.90,South,180,12.7,12.7,61,0.00,CLR,,0.00,WeatherDisplay:10.37,2013-02-18 10:21:00,
2013-02-18 04:26:00,33.6,21.6,29.90,ESE,117,12.7,12.7,61,0.00,CLR,,0.00,WeatherDisplay:10.37,2013-02-18 10:26:00,
2013-02-18 04:31:00,33.5,21.9,29.90,SSE,150,8.1,8.1,62,0.00,CLR,,0.00,WeatherDisplay:10.37,2013-02-18 10:31:00,
2013-02-18 04:36:00,33.4,21.8,29.90,SSW,196,13.0,13.0,62,0.00,CLR,,0.00,WeatherDisplay:10.37,2013-02-18 10:36:00,
2013-02-18 04:42:00,33.3,22.1,29.90,South,172,10.4,10.4,63,0.00,CLR,,0.00,WeatherDisplay:10.37,2013-02-18 10:42:00,
2013-02-18 04:47:00,33.3,22.1,29.90,West,262,9.2,9.2,63,0.00,CLR,,0.00,WeatherDisplay:10.37,2013-02-18 10:47:00,
2013-02-18 04:53:00,33.3,22.1,29.89,SE,144,15.0,15.0,63,0.00,CLR,,0.00,WeatherDisplay:10.37,2013-02-18 10:53:00,
2013-02-18 04:58:00,33.3,22.4,29.89,ESE,107,6.0,6.0,64,0.00,CLR,,0.00,WeatherDisplay:10.37,2013-02-18 10:58:00,
2013-02-18 05:03:00,33.2,22.3,29.89,South,171,13.8,13.8,64,0.00,CLR,,0.00,WeatherDisplay:10.37,2013-02-18 11:03:00,
2013-02-18 05:08:00,33.2,22.3,29.89,SSE,153,9.2,9.2,64,0.00,CLR,,0.00,WeatherDisplay:10.37,2013-02-18 11:08:00,
2013-02-18 05:13:00,33.1,22.2,29.89,SSW,192,9.2,9.2,64,0.00,CLR,,0.00,WeatherDisplay:10.37,2013-02-18 11:13:00,
2013-02-18 05:18:00,33.1,22.6,29.89,South,175,6.9,6.9,65,0.00,CLR,,0.00,WeatherDisplay:10.37,2013-02-18 11:18:00,
2013-02-18 05:23:00,33.0,22.5,29.88,SSE,167,9.2,9.2,65,0.00,CLR,,0.00,WeatherDisplay:10.37,2013-02-18 11:23:00,
2013-02-18 05:29:00,33.0,22.5,29.88,South,172,6.9,6.9,65,0.00,CLR,,0.00,WeatherDisplay:10.37,2013-02-18 11:29:00,
2013-02-18 05:34:00,33.1,23.0,29.88,South,175,10.4,10.4,66,0.00,CLR,,0.00,WeatherDisplay:10.37,2013-02-18 11:34:00,
2013-02-18 05:39:00,33.2,23.1,29.88,South,182,6.9,6.9,66,0.00,CLR,,0.00,WeatherDisplay:10.37,2013-02-18 11:39:00,
2013-02-18 05:44:00,33.3,23.2,29.87,South,171,5.0,5.0,66,0.00,CLR,,0.00,WeatherDisplay:10.37,2013-02-18 11:44:00,
2013-02-18 05:49:00,33.4,23.3,29.87,WSW,238,11.5,11.5,66,0.00,CLR,,0.00,WeatherDisplay:10.37,2013-02-18 11:49:00,
2013-02-18 05:54:00,33.5,23.7,29.87,South,183,11.5,11.5,67,0.00,CLR,,0.00,WeatherDisplay:10.37,2013-02-18 11:54:00,
2013-02-18 05:59:00,33.5,23.7,29.87,SSW,208,6.9,6.9,67,0.00,CLR,,0.00,WeatherDisplay:10.37,2013-02-18 11:59:00,
2013-02-18 06:04:00,33.5,23.7,29.87,SSE,155,5.8,5.8,67,0.00,CLR,,0.00,WeatherDisplay:10.37,2013-02-18 12:04:00,
2013-02-18 06:09:00,33.6,23.8,29.87,South,190,9.2,9.2,67,0.00,CLR,,0.00,WeatherDisplay:10.37,2013-02-18 12:09:00,
2013-02-18 06:15:00,33.6,24.2,29.87,South,185,10.4,10.4,68,0.00,CLR,,0.00,WeatherDisplay:10.37,2013-02-18 12:15:00,
2013-02-18 06:20:00,33.9,24.4,29.86,South,169,11.5,11.5,68,0.00,CLR,,0.00,WeatherDisplay:10.37,2013-02-18 12:20:00,
2013-02-18 06:25:00,34.2,24.7,29.86,SSE,160,13.8,13.8,68,0.00,CLR,,0.00,WeatherDisplay:10.37,2013-02-18 12:25:00,
2013-02-18 06:30:00,34.3,24.8,29.86,SSE,147,11.5,11.5,68,0.00,CLR,,0.00,WeatherDisplay:10.37,2013-02-18 12:30:00,
2013-02-18 06:35:00,34.4,24.9,29.86,SSE,165,10.4,10.4,68,0.00,CLR,,0.00,WeatherDisplay:10.37,2013-02-18 12:35:00,
2013-02-18 06:40:00,34.4,24.9,29.85,SSE,163,6.9,6.9,68,0.00,CLR,,0.00,WeatherDisplay:10.37,2013-02-18 12:40:00,
2013-02-18 06:45:00,34.6,25.1,29.85,SSE,165,15.0,15.0,68,0.00,CLR,,0.00,WeatherDisplay:10.37,2013-02-18 12:45:00,
2013-02-18 06:50:00,34.9,25.4,29.85,SSE,155,11.5,11.5,68,0.00,CLR,,0.00,WeatherDisplay:10.37,2013-02-18 12:50:00,
2013-02-18 06:56:00,34.9,25.4,29.85,SSE,148,10.4,10.4,68,0.00,CLR,,0.00,WeatherDisplay:10.37,2013-02-18 12:56:00,
2013-02-18 07:01:00,35.1,25.6,29.85,South,172,13.8,13.8,68,0.00,CLR,,0.00,WeatherDisplay:10.37,2013-02-18 13:01:00,
2013-02-18 07:06:00,35.2,25.7,29.85,South,183,5.8,5.8,68,0.00,CLR,,0.00,WeatherDisplay:10.37,2013-02-18 13:06:00,
2013-02-18 07:11:00,35.4,25.9,29.84,SSE,166,11.5,11.5,68,0.00,CLR,,0.00,WeatherDisplay:10.37,2013-02-18 13:11:00,
2013-02-18 07:16:00,35.6,26.4,29.84,SSE,153,17.3,17.3,69,0.00,CLR,,0.00,WeatherDisplay:10.37,2013-02-18 13:16:00,
2013-02-18 07:22:00,35.8,26.6,29.84,South,172,15.0,15.0,69,0.00,CLR,,0.00,WeatherDisplay:10.37,2013-02-18 13:22:00,
2013-02-18 07:27:00,36.1,26.9,29.84,South,182,12.7,12.7,69,0.00,CLR,,0.00,WeatherDisplay:10.37,2013-02-18 13:27:00,
2013-02-18 07:33:00,36.4,27.2,29.84,SSE,157,11.5,11.5,69,0.00,CLR,,0.00,WeatherDisplay:10.37,2013-02-18 13:33:00,
2013-02-18 07:38:00,36.7,27.5,29.84,SSE,160,18.4,18.4,69,0.00,CLR,,0.00,WeatherDisplay:10.37,2013-02-18 13:38:00,
2013-02-18 07:43:00,37.1,27.5,29.84,SSE,149,11.5,11.5,68,0.00,CLR,,0.00,WeatherDisplay:10.37,2013-02-18 13:43:00,
2013-02-18 07:48:00,37.5,27.9,29.84,South,182,16.1,16.1,68,0.00,CLR,,0.00,WeatherDisplay:10.37,2013-02-18 13:48:00,
2013-02-18 07:53:00,37.7,28.1,29.84,SSW,196,13.8,13.8,68,0.00,CLR,,0.00,WeatherDisplay:10.37,2013-02-18 13:53:00,
2013-02-18 07:58:00,37.9,28.3,29.84,SSW,198,19.6,19.6,68,0.00,CLR,,0.00,WeatherDisplay:10.37,2013-02-18 13:58:00,
2013-02-18 08:04:00,38.0,28.7,29.84,SSE,164,16.1,16.1,69,0.00,CLR,,0.00,WeatherDisplay:10.37,2013-02-18 14:04:00,
2013-02-18 08:09:00,38.3,29.0,29.84,SSW,209,13.0,13.0,69,0.00,CLR,,0.00,WeatherDisplay:10.37,2013-02-18 14:09:00,
2013-02-18 08:14:00,38.7,29.0,29.84,SSW,195,18.4,18.4,68,0.00,CLR,,0.00,WeatherDisplay:10.37,2013-02-18 14:14:00,
2013-02-18 08:19:00,39.0,29.3,29.84,SSE,155,17.3,17.3,68,0.00,CLR,,0.00,WeatherDisplay:10.37,2013-02-18 14:19:00,
2013-02-18 08:24:00,39.3,29.6,29.84,South,173,11.5,11.5,68,0.00,CLR,,0.00,WeatherDisplay:10.37,2013-02-18 14:24:00,
2013-02-18 08:29:00,39.3,29.6,29.84,SSE,160,13.8,13.8,68,0.00,CLR,,0.00,WeatherDisplay:10.37,2013-02-18 14:29:00,
2013-02-18 08:34:00,39.4,29.7,29.84,SSE,159,13.8,13.8,68,0.00,CLR,,0.00,WeatherDisplay:10.37,2013-02-18 14:34:00,
2013-02-18 08:40:00,39.7,30.0,29.83,SSW,192,14.0,14.0,68,0.00,CLR,,0.00,WeatherDisplay:10.37,2013-02-18 14:40:00,
2013-02-18 08:45:00,40.0,30.6,29.83,SSW,200,19.6,19.6,69,0.00,CLR,,0.00,WeatherDisplay:10.37,2013-02-18 14:45:00,
2013-02-18 08:50:00,40.2,30.8,29.83,South,188,15.0,15.0,69,0.00,CLR,,0.00,WeatherDisplay:10.37,2013-02-18 14:50:00,
2013-02-18 08:55:00,40.8,31.4,29.83,SSE,156,21.9,21.9,69,0.00,CLR,,0.00,WeatherDisplay:10.37,2013-02-18 14:55:00,
2013-02-18 09:00:00,41.3,31.9,29.82,SSE,166,16.1,16.1,69,0.00,CLR,,0.00,WeatherDisplay:10.37,2013-02-18 15:00:00,
2013-02-18 09:05:00,41.6,32.2,29.82,South,173,11.5,11.5,69,0.00,CLR,,0.00,WeatherDisplay:10.37,2013-02-18 15:05:00,
2013-02-18 09:10:00,42.0,32.6,29.82,SSW,199,19.6,19.6,69,0.00,CLR,,0.00,WeatherDisplay:10.37,2013-02-18 15:10:00,
2013-02-18 09:47:00,44.5,35.0,29.81,SSW,213,18.4,18.4,69,0.00,CLR,,0.00,WeatherDisplay:10.37,2013-02-18 15:47:00,
2013-02-18 09:53:00,44.9,35.0,29.81,South,177,20.7,20.7,68,0.00,CLR,,0.00,WeatherDisplay:10.37,2013-02-18 15:53:00,
2013-02-18 09:58:00,45.0,35.1,29.81,South,179,16.1,16.1,68,0.00,CLR,,0.00,WeatherDisplay:10.37,2013-02-18 15:58:00,
2013-02-18 10:03:00,45.1,35.5,29.81,SSE,165,13.8,13.8,69,0.00,CLR,,0.00,WeatherDisplay:10.37,2013-02-18 16:03:00,
2013-02-18 10:08:00,45.5,35.9,29.80,South,186,13.8,13.8,69,0.00,CLR,,0.00,WeatherDisplay:10.37,2013-02-18 16:08:00,
2013-02-18 10:13:00,45.6,36.0,29.80,SE,144,13.8,13.8,69,0.00,CLR,,0.00,WeatherDisplay:10.37,2013-02-18 16:13:00,
2013-02-18 10:18:00,45.8,36.2,29.80,South,173,12.0,12.0,69,0.00,CLR,,0.00,WeatherDisplay:10.37,2013-02-18 16:18:00,
2013-02-18 10:23:00,46.2,37.0,29.79,SSE,165,19.6,19.6,70,0.00,CLR,,0.00,WeatherDisplay:10.37,2013-02-18 16:23:00,
2013-02-18 10:28:00,46.9,37.6,29.79,South,172,13.8,13.8,70,0.00,CLR,,0.00,WeatherDisplay:10.37,2013-02-18 16:28:00,
2013-02-18 10:34:00,47.4,37.7,29.79,SSW,196,19.6,19.6,69,0.00,CLR,,0.00,WeatherDisplay:10.37,2013-02-18 16:34:00,
2013-02-18 10:39:00,47.7,38.0,29.79,SW,234,21.9,21.9,69,0.00,CLR,,0.00,WeatherDisplay:10.37,2013-02-18 16:39:00,
2013-02-18 10:44:00,47.7,38.0,29.79,SSW,211,20.7,20.7,69,0.00,CLR,,0.00,WeatherDisplay:10.37,2013-02-18 16:44:00,
2013-02-18 10:49:00,47.9,38.2,29.78,SSW,194,11.5,11.5,69,0.00,CLR,,0.00,WeatherDisplay:10.37,2013-02-18 16:49:00,
2013-02-18 10:54:00,48.6,39.3,29.79,SSE,162,19.6,19.6,70,0.00,CLR,,0.00,WeatherDisplay:10.37,2013-02-18 16:54:00,
2013-02-18 10:59:00,48.8,39.1,29.78,SSW,213,20.7,20.7,69,0.00,CLR,,0.00,WeatherDisplay:10.37,2013-02-18 16:59:00,
2013-02-18 11:04:00,49.3,39.9,29.78,South,175,19.6,19.6,70,0.00,CLR,,0.00,WeatherDisplay:10.37,2013-02-18 17:04:00,
2013-02-18 11:10:00,49.2,39.8,29.78,SSW,211,26.5,26.5,70,0.00,CLR,,0.00,WeatherDisplay:10.37,2013-02-18 17:10:00,
2013-02-18 11:15:00,49.3,40.3,29.78,SE,145,18.4,18.4,71,0.00,CLR,,0.00,WeatherDisplay:10.37,2013-02-18 17:15:00,
2013-02-18 11:20:00,49.6,40.6,29.78,SW,216,19.6,19.6,71,0.00,CLR,,0.00,WeatherDisplay:10.37,2013-02-18 17:20:00,
2013-02-18 11:25:00,50.5,41.4,29.78,South,191,23.0,23.0,71,0.00,CLR,,0.00,WeatherDisplay:10.37,2013-02-18 17:25:00,